Weather History for Port Angeles, WA

Change the Weather History Date:

Monday, July 15, 2013

  Actual Average Record
Temperature  
Mean Temperature 62 °F -  
Max Temperature 80 °F 69 °F 87 °F (1958)
Min Temperature 46 °F 50 °F 40 °F (1987)
Degree Days  
Heating Degree Days 2    
Growing Degree Days 12 (Base 50)    
Moisture  
Dew Point 46 °F    
Average Humidity 58    
Maximum Humidity 93    
Minimum Humidity 23    
Precipitation  
Precipitation 0.00 in - - ()
Sea Level Pressure  
Sea Level Pressure 30.03 in    
Wind  
Wind Speed 4 mph (WNW)    
Max Wind Speed 7 mph    
Max Gust Speed -    
Visibility 10 miles    
Events      
Averages and records for this station are not official NWS values.
T = Trace of Precipitation, MM = Missing Value Source: NWS Daily Summary

Daily Weather History Graph

Daily Weather History Graph

Search for Another Location

Airport:

Trip Planner

Search our weather history database for the weather conditions in past years. The results will help you decide how hot, cold, wet, or windy it might be!

Date:

Astronomy

Jul. 15, 2013 Rise Set
Actual Time 5:30 AM PDT 9:09 PM PDT
Civil Twilight 4:50 AM PDT 9:48 PM PDT
Nautical Twilight 3:57 AM PDT 10:41 PM PDT
Astronomical Twilight 2:42 AM PDT 11:55 PM PDT
Moon 1:35 PM PDT (7/15) No Moon Set
Length of Visible Light 16h 57m
Length of Day
15h 39m
Waxing Crescent, 46% of the Moon is Illuminated
Jul 15
Waxing Crescent
Jul 15
First Quarter
Jul 22
Full
Jul 29
Last Quarter
Aug 6
New

Hourly Weather History & Observations

Time (PDT) Temp. Dew Point Humidity Pressure Visibility Wind Dir Wind Speed Gust Speed Precip Events Conditions
12:53 AM 51.1 °F 48.9 °F 92% 30.06 in 10.0 mi WNW 3.5 mph - N/A   Clear
1:53 AM 50.0 °F 48.0 °F 93% 30.06 in 10.0 mi Calm Calm - N/A   Clear
2:53 AM 48.0 °F 46.0 °F 93% 30.06 in 10.0 mi Calm Calm - N/A   Clear
3:53 AM 48.9 °F 46.0 °F 90% 30.07 in 10.0 mi North - - N/A   Clear
4:53 AM 46.9 °F 45.0 °F 93% 30.07 in 10.0 mi Calm Calm - N/A   Clear
5:53 AM 52.0 °F 48.0 °F 86% 30.08 in 10.0 mi SW 6.9 mph - N/A   Clear
6:53 AM 57.0 °F 51.1 °F 81% 30.09 in 10.0 mi SE 3.5 mph - N/A   Clear
7:53 AM 64.0 °F 52.0 °F 65% 30.09 in 10.0 mi Calm Calm - N/A   Clear
8:53 AM 68.0 °F 48.0 °F 49% 30.09 in 10.0 mi East 6.9 mph - N/A   Clear
9:53 AM 70.0 °F 48.0 °F 46% 30.09 in 10.0 mi East 6.9 mph - N/A   Clear
10:53 AM 71.1 °F 48.0 °F 44% 30.09 in 10.0 mi Variable 5.8 mph - N/A   Clear
11:53 AM 71.1 °F 46.9 °F 42% 30.08 in 10.0 mi North 6.9 mph - N/A   Clear
12:53 PM 75.0 °F 46.0 °F 36% 30.07 in 10.0 mi Variable 4.6 mph - N/A   Clear
1:53 PM 77.0 °F 45.0 °F 32% 30.05 in 10.0 mi Variable 4.6 mph - N/A   Clear
2:53 PM 78.1 °F 39.9 °F 25% 30.04 in 10.0 mi East 6.9 mph - N/A   Clear
3:53 PM 79.0 °F 37.9 °F 23% 30.01 in 10.0 mi Variable 6.9 mph - N/A   Clear
4:53 PM 79.0 °F 39.9 °F 25% 29.99 in 10.0 mi Variable 4.6 mph - N/A   Clear
5:53 PM 78.1 °F 39.9 °F 25% 29.97 in 10.0 mi Variable 3.5 mph - N/A   Clear
6:53 PM 73.9 °F 46.9 °F 38% 29.96 in 10.0 mi North 3.5 mph - N/A   Clear
7:53 PM 70.0 °F 46.9 °F 44% 29.95 in 10.0 mi WNW 4.6 mph - N/A   Clear
8:53 PM 64.9 °F 46.0 °F 50% 29.94 in 10.0 mi West 5.8 mph - N/A   Clear
9:53 PM 57.9 °F 48.9 °F 72% 29.95 in 10.0 mi West 3.5 mph - N/A   Clear
10:53 PM 57.9 °F 48.0 °F 70% 29.95 in 10.0 mi SW 4.6 mph - N/A   Clear
11:53 PM 55.9 °F 46.0 °F 69% 29.94 in 10.0 mi Calm Calm - N/A   Clear